Terminal Aerodrome Forecast
Issued by NWS

Current Version | Previous Version | Graphics & Text | Print | Product List | Glossary On
Versions: 1 2 3 4 5 6 7 8 9 10 11 12 13 14 15 16 17
000
FTUS41 KPBZ 310520
TAFMGW
TAF
KMGW 310520Z 3106/0106 00000KT P6SM FEW120 OVC250
     FM310900 VRB02KT 4SM BR BKN250
     FM311400 23005KT P6SM SCT040 BKN250=

USA.gov is the U.S. government's official web portal to all federal, state and local government web resources and services.